[Iaude] MPEC P18: 2024 OG2 [a=2.51,e=0.60,i=8.3,H=28.8]

mpec at cfa.harvard.edu mpec at cfa.harvard.edu
Thu Aug 1 14:19:12 EDT 2024


M.P.E.C. 2024-P18                                Issued 2024 August 1, 18:17 UT

     The Minor Planet Electronic Circulars contain information on unusual
         minor planets, routine data on comets and natural satellites,
         and occasional editorial announcements.  They are published
    on behalf of Division F of the International Astronomical Union by the
          Minor Planet Center, Smithsonian Astrophysical Observatory,
                          Cambridge, MA 02138, U.S.A.
			  
             Prepared using the Tamkin Foundation Computer Network

                              MPC at CFA.HARVARD.EDU
            URL https://www.minorplanetcenter.net/    ISSN 1523-6714

                                    2024 OG2                                    


Observations:
     K24O02G*KC2024 07 28.95802 22 41 58.39 +20 17 58.5          19.6 GXEP018L51
     K24O02G KC2024 07 28.95905 22 41 59.42 +20 18 26.3          19.9 GXEP018L51
     K24O02G KC2024 07 28.96008 22 42 00.46 +20 18 54.5          19.5 GXEP018L51
     K24O02G KB2024 07 28.99705022 43 06.11 +20 34 14.9          20.5 GXEP018I93
     K24O02G KC2024 07 28.99748722 43 03.638+20 32 39.88         20.1 GVEP018J95
     K24O02G KB2024 07 28.99868222 43 07.72 +20 34 57.7          20.2 GXEP018I93
     K24O02G KB2024 07 29.00030322 43 09.32 +20 35 39.8          20.0 GXEP018I93
     K24O02G KC2024 07 29.00181922 43 08.119+20 34 32.12         20.2 GVEP018J95
     K24O02G KC2024 07 29.01139122 43 17.863+20 38 39.62         20.5 GVEP018J95
     K24O02G KC2024 07 29.01641822 43 22.874+20 40 47.21         20.2 GVEP018J95
     K24O02G KC2024 07 29.27066722 47 57.33 +22 12 54.4          20.6 GVEP018H21
     K24O02G KC2024 07 29.28031222 48 03.57 +22 15 52.6          21.2 GVEP018H21
     K24O02G KC2024 07 29.28211222 48 04.73 +22 16 25.7          20.7 GVEP018H21
     K24O02G KC2024 07 29.28416922 48 06.05 +22 17 03.0          20.6 GVEP018H21
     K24O02G  C2024 07 29.45158322 50 37.454+23 05 48.32         20.50GVEP018F52
     K24O02G  C2024 07 29.46204922 50 42.356+23 08 28.11         20.85GVEP018F52
     K24O02G  C2024 07 29.47252422 50 47.113+23 11 05.11         20.37GVEP018F52

Observer details:
F52 Pan-STARRS 2, Haleakala.  Observers J. Herman, T. Lowe, P. Minguez, A.
    Schultz, I. Smith.  Measurers K. Chambers, T. de Boer, J. Fairlamb, H.
    Gao, M. Huber, C.-C. Lin, E. Magnier, Y. Ramanjooloo, R. Wainscoat, R.
    Weryk.  1.8-m Ritchey-Chretien + CCD.
H21 Astronomical Research Observatory, Westfield.  Observer R. Holmes.
    Measurers T. Linder, R. Holmes.  0.76-m f/3.0 astrograph + CCD.
I93 St Pardon de Conques.  Observer F. Losse.  0.40-m f/3.7 reflector + CMO.
J95 Great Shefford.  Observer P. Birtwhistle.  0.41-m f/6.3 Schmidt-Cassegrain
    + CCD.
L51 MARGO, Nauchnyi.  Observer G. Borisov.  0.50-m f/1.9 reflector + CCD.

Orbital elements:
2024 OG2                                                 Earth MOID = 0.0023 AU
Epoch 2024 Oct. 17.0 TT = JDT 2460600.5                 Veres                   
M  23.60738              (2000.0)            P               Q                  
n   0.24757174     Peri.  342.63876     +0.30291423     +0.94554695             
a   2.5118980      Node   304.83819     -0.85625086     +0.21515659             
e   0.6017957      Incl.    8.34327     -0.41842255     +0.24423063             
P   3.98           H   28.80          G   0.15           U   8                  
Residuals in seconds of arc
240728 L51  0.3+  0.1+    240729 I93  0.5-  0.1-    240729 H21  0.1-  0.3+
240728 L51  0.0   0.0     240729 J95  0.6+  0.6-    240729 H21  0.0   0.1+
240728 L51  0.1-  0.4+    240729 J95  0.4+  0.3+    240729 F52  0.3+  0.3+
240728 I93  0.0   0.0     240729 J95  0.0   0.1-    240729 F52  0.0   0.0
240728 J95  0.6+  0.1+    240729 H21  0.1+  0.2-    240729 F52  0.2-  0.5-
240728 I93  0.3-  0.1+    240729 H21  0.2-  0.0

Ephemeris:
2024 OG2                 a,e,i = 2.51, 0.60, 8                   q = 1.0002
Date    TT    R. A. (2000) Decl.     Delta      r    Elong.  Phase     V
2024 07 02    11 10 05.0 -29 15 41   0.1455  1.0080    82.5    89.3    27.8
...
2024 07 17    11 16 53.1 -30 40 35   0.06153 0.9995    72.5   104.2    26.6
...
2024 07 25    11 34 58.0 -35 01 13   0.01510 1.0111    71.9   107.3    23.7
...
2024 07 31    23 01 38.1 +26 31 27   0.02019 1.0265   123.7    55.3    22.4
2024 08 01    23 04 51.7 +27 27 08   0.02600 1.0295   123.3    55.5    23.0
2024 08 02    23 06 52.4 +28 01 24   0.03182 1.0327   123.4    55.2    23.4
...
2024 08 08    23 10 44.7 +29 06 32   0.06676 1.0551   126.5    50.6    24.9
...
2024 08 16    23 10 12.7 +28 51 45   0.1136  1.0924   132.4    43.2    25.9
...
2024 08 31    23 05 31.7 +26 41 47   0.2049  1.1814   144.0    30.1    27.0

M. P. C. Staff               (C) Copyright 2024 MPC           M.P.E.C. 2024-P18





More information about the Iaude mailing list